QPF
0.00 0.00 0.00 0.00 0.00 0.00 0.00 0.00 0.00 0.00 0.00 0.00 0.00 0.00 0.00 0.00 0.00 0.00 0.00 0.00 0.00 0.00
0.00 0.00 0.00 0.00 0.00 0.00 0.00 0.00 0.00 0.00 0.00 0.00 0.00 0.00 0.00 0.00 0.00 0.00 0.00 0.00 0.00 0.00
0.00 0.00 0.00 0.00 0.00 0.00 0.00 0.00 0.00 0.00 0.00 0.00 0.00 0.00 0.00 0.00 0.00 0.00 0.00 0.00 0.00 0.00
0.00 0.00 0.00 0.00 0.00 0.00 0.00 0.00 0.00 0.00 0.00 0.00 0.00 0.00 0.00 0.00 0.00 0.00 0.00 0.00 0.00 0.00
0.00 0.00 0.00 0.00 0.00 0.00 0.00 0.00 0.00 0.00 0.00 0.00 0.00 0.00 0.00 0.00 0.00 0.00 0.00 0.00 0.00 0.00
0.00 0.00 0.00 0.00 0.00 0.00 0.00 0.00 0.00 0.00 0.00 0.00 0.00 0.00 0.00 0.00 0.00 0.00 0.00 0.00 0.00 0.00
0.00 0.00 0.00 0.00 0.00 0.00 0.00 0.00 0.00 0.00 0.00 0.00 0.00 0.00 0.00 0.00 0.00 0.00 0.00 0.00 0.00 0.00
0.00 0.00 0.00 0.00 0.00 0.00 0.00 0.00 0.00 0.00 0.00 0.00 0.00 0.00 0.00 0.00 0.00 0.00 0.00 0.00 0.00 0.00
0.00 0.00 0.00 0.00 0.00 0.00 0.00 0.00 0.00 0.00 0.00 0.00 0.00 0.00 0.00 0.00 0.00 0.00 0.00 0.00 0.00 0.00
0.00 0.00 0.00 0.00 0.00 0.00 0.00 0.00 0.00 0.00 0.00 0.00 0.00 0.00 0.00 0.00 0.00 0.00 0.00 0.00 0.00 0.00
0.00 0.00 0.00 0.00 0.00 0.00 0.00 0.00 0.00 0.00 0.00 0.00 0.00 0.00 0.00 0.00 0.00 0.00 0.00 0.00 0.00 0.00
0.00 0.00 0.00 0.00 0.00 0.00 0.00 0.00 0.00 0.00 0.00 0.00 0.00 0.00 0.00 0.00 0.00 0.00 0.00 0.00 0.00 0.00
0.00 0.00 0.00 0.00 0.00 0.00 0.00 0.00 0.00 0.00 0.00 0.00 0.00 0.00 0.00 0.00 0.00 0.00 0.00 0.00 0.00 0.00
0.00 0.00 0.00 0.00 0.00 0.00 0.00 0.00 0.00 0.00 0.00 0.00 0.00 0.00 0.00 0.00 0.00 0.00 0.00 0.00 0.00 0.00
MSLP
1008.27 1008.81 1009.80 1010.77 1011.46 1012.15 1012.99 1014.05 1015.01 1015.79 1016.47 1017.30 1018.07 1018.75 1019.01 1019.40 1020.10 1020.69 1021.31 1021.89 1022.15 1022.34
1008.44 1008.77 1009.18 1009.88 1010.84 1011.56 1012.16 1012.99 1014.01 1015.00 1015.90 1016.64 1017.23 1017.99 1018.60 1019.12 1019.39 1020.06 1020.79 1021.27 1021.80 1022.00
1007.35 1008.01 1008.62 1009.49 1010.02 1010.41 1011.30 1012.06 1013.18 1014.06 1015.00 1015.96 1016.79 1017.43 1018.19 1018.80 1019.22 1019.66 1020.43 1021.07 1021.48 1021.84
1006.67 1006.94 1007.60 1008.15 1009.14 1009.71 1010.52 1011.23 1012.12 1013.10 1014.04 1014.99 1015.98 1016.79 1017.72 1018.26 1018.84 1019.21 1020.02 1020.91 1021.35 1021.89
1005.97 1006.57 1007.23 1007.10 1007.49 1008.60 1009.63 1010.39 1011.04 1012.09 1012.80 1013.87 1014.86 1015.64 1016.63 1017.54 1018.40 1018.86 1019.14 1019.82 1020.69 1021.39
1005.41 1006.09 1006.08 1006.00 1006.70 1007.67 1008.49 1009.28 1010.08 1010.91 1011.62 1012.45 1013.46 1014.47 1015.39 1016.42 1017.34 1018.08 1018.15 1018.67 1019.80 1020.55
1003.74 1003.89 1004.61 1005.27 1005.59 1006.41 1007.12 1008.16 1008.84 1009.33 1010.15 1011.01 1012.26 1013.52 1014.44 1015.69 1016.73 1017.80 1018.03 1018.48 1019.15 1019.74
1002.30 1002.94 1003.64 1004.43 1004.49 1005.44 1006.10 1007.15 1007.58 1008.29 1009.52 1010.50 1011.28 1011.91 1013.11 1014.37 1015.71 1017.12 1017.74 1017.91 1018.65 1019.05
1002.26 1002.78 1002.50 1003.26 1003.66 1003.94 1005.21 1006.47 1006.97 1007.72 1008.22 1009.54 1010.11 1010.62 1012.01 1013.39 1014.90 1016.17 1016.93 1017.60 1018.30 1019.04
1001.67 1001.80 1002.73 1002.25 1003.20 1003.33 1004.89 1005.79 1006.00 1006.55 1007.44 1008.49 1009.05 1009.35 1010.91 1012.38 1013.30 1014.61 1015.70 1016.60 1017.25 1018.22
1001.30 1001.45 1001.83 1001.74 1002.10 1002.59 1003.54 1004.37 1005.10 1005.99 1006.65 1007.94 1008.19 1008.43 1010.10 1011.57 1013.02 1013.62 1014.31 1015.33 1016.00 1017.27
1001.80 1001.86 1001.64 1001.77 1002.11 1001.94 1002.82 1003.79 1004.31 1005.18 1005.55 1006.63 1007.78 1008.65 1010.14 1011.23 1012.50 1013.53 1014.08 1015.02 1015.81 1016.72
1001.86 1001.36 1001.55 1001.68 1001.77 1002.18 1003.02 1003.38 1003.94 1004.67 1004.94 1005.50 1006.01 1006.99 1008.63 1010.05 1011.25 1012.70 1013.64 1014.57 1015.30 1015.71
1001.82 1002.04 1001.75 1001.81 1002.07 1002.35 1002.94 1003.69 1003.98 1004.33 1005.23 1006.06 1005.94 1006.71 1007.85 1008.83 1009.97 1011.05 1012.03 1013.18 1014.26 1014.86
Thickness
5621 5619 5611 5602 5596 5590 5584 5576 5569 5563 5556 5548 5540 5534 5532 5529 5523 5517 5510 5505 5503 5502
5607 5606 5604 5597 5588 5581 5576 5570 5561 5554 5546 5539 5534 5526 5521 5517 5516 5508 5501 5496 5490 5488
5605 5597 5591 5583 5580 5576 5568 5561 5552 5546 5538 5530 5521 5516 5510 5506 5502 5498 5490 5484 5479 5475
5596 5595 5587 5582 5572 5567 5560 5553 5545 5538 5530 5522 5512 5505 5498 5494 5489 5486 5478 5468 5464 5458
5585 5580 5574 5576 5571 5561 5552 5544 5538 5530 5525 5515 5506 5499 5491 5482 5474 5470 5468 5461 5453 5446
5571 5565 5564 5565 5560 5552 5541 5535 5529 5523 5518 5511 5502 5492 5484 5474 5466 5460 5460 5454 5443 5436
5566 5564 5558 5551 5550 5543 5536 5528 5522 5520 5512 5505 5494 5482 5475 5463 5453 5444 5441 5436 5430 5424
5560 5555 5548 5540 5540 5532 5526 5518 5514 5508 5499 5491 5484 5479 5467 5455 5444 5431 5425 5423 5416 5411
5541 5534 5536 5530 5529 5527 5514 5504 5500 5496 5492 5479 5475 5471 5458 5445 5431 5420 5414 5406 5398 5391
5520 5521 5513 5521 5508 5509 5496 5488 5488 5484 5477 5469 5464 5461 5447 5434 5424 5414 5404 5397 5390 5380
5500 5501 5497 5500 5497 5494 5487 5479 5473 5467 5461 5451 5451 5447 5434 5422 5408 5404 5398 5389 5383 5370
5469 5472 5477 5476 5473 5477 5470 5464 5460 5455 5451 5443 5433 5426 5415 5406 5395 5385 5382 5374 5366 5355
5443 5452 5453 5454 5455 5453 5446 5446 5445 5440 5439 5433 5429 5421 5410 5400 5388 5375 5366 5360 5351 5346
5419 5422 5427 5430 5431 5430 5428 5423 5424 5424 5416 5409 5412 5405 5398 5392 5380 5370 5361 5350 5338 5332